UAL3033 RJAA-PGUM

Flight info

Callsign UAL3033
Flight time 3h 19m
Altitude 31000
Route OLVAN Y823 MERED Y821 DAGDA A337 SAGOP/N0473F330 A337 TEGOD/N0477F320 G205 GUYES
Aircraft B738/M-SDE2E3FGHIRWXY/LB1

Departure

Time 2026-04-21 03:43
Airport Narita International Airport (RJAA)

Arrival

Time 2026-04-21 07:03
Airport Antonio B. Won Pat International Airport (PGUM)
Time Latitude Longitude Altitude Speed Heading
2026-04-21 03:08 35.77666 140.39087 138 ft 0 kts 100°
2026-04-21 03:25 35.77669 140.39066 138 ft 3 kts 100°
2026-04-21 03:25 35.77672 140.39041 138 ft 3 kts 100°
2026-04-21 03:25 35.77676 140.39015 139 ft 3 kts 100°
2026-04-21 03:26 35.77680 140.38990 139 ft 3 kts 100°
2026-04-21 03:26 35.77681 140.38979 139 ft 0 kts 100°
2026-04-21 03:29 35.77687 140.38982 139 ft 1 kts 26°
2026-04-21 03:29 35.77698 140.38971 139 ft 4 kts 310°
2026-04-21 03:30 35.77751 140.38916 139 ft 17 kts 334°
2026-04-21 03:30 35.77854 140.39005 140 ft 23 kts 58°
2026-04-21 03:30 35.77912 140.39132 140 ft 0 kts 59°
2026-04-21 03:31 35.77939 140.39189 140 ft 17 kts 61°
2026-04-21 03:31 35.77897 140.39375 133 ft 25 kts 117°
2026-04-21 03:31 35.77801 140.39518 137 ft 21 kts 148°
2026-04-21 03:31 35.77677 140.39608 141 ft 21 kts 149°
2026-04-21 03:32 35.77556 140.39697 141 ft 20 kts 149°
2026-04-21 03:32 35.77437 140.39782 141 ft 19 kts 150°
2026-04-21 03:32 35.77325 140.39869 141 ft 19 kts 128°
2026-04-21 03:32 35.77238 140.39970 144 ft 18 kts 182°
2026-04-21 03:33 35.77125 140.39910 144 ft 18 kts 203°
2026-04-21 03:33 35.77015 140.39847 144 ft 17 kts 205°
2026-04-21 03:33 35.76909 140.39791 144 ft 17 kts 193°
2026-04-21 03:33 35.76796 140.39772 144 ft 16 kts 203°
2026-04-21 03:34 35.76702 140.39686 144 ft 18 kts 219°
2026-04-21 03:34 35.76579 140.39683 140 ft 20 kts 161°
2026-04-21 03:34 35.76449 140.39659 140 ft 20 kts 206°
2026-04-21 03:34 35.76325 140.39590 138 ft 20 kts 204°
2026-04-21 03:35 35.76198 140.39519 142 ft 20 kts 201°
2026-04-21 03:35 35.76128 140.39503 144 ft 8 kts 193°
2026-04-21 03:35 35.76088 140.39461 146 ft 8 kts 217°
2026-04-21 03:35 35.76032 140.39420 144 ft 13 kts 207°
2026-04-21 03:36 35.75949 140.39377 149 ft 14 kts 200°
2026-04-21 03:36 35.75875 140.39351 144 ft 13 kts 207°
2026-04-21 03:36 35.75809 140.39276 145 ft 13 kts 235°
2026-04-21 03:36 35.75758 140.39186 146 ft 13 kts 232°
2026-04-21 03:37 35.75691 140.39116 147 ft 13 kts 208°
2026-04-21 03:37 35.75592 140.39061 146 ft 18 kts 204°
2026-04-21 03:37 35.75471 140.38994 146 ft 20 kts 204°
2026-04-21 03:37 35.75349 140.38926 146 ft 19 kts 204°
2026-04-21 03:38 35.75230 140.38862 147 ft 18 kts 204°
2026-04-21 03:38 35.75126 140.38806 148 ft 14 kts 204°
2026-04-21 03:38 35.75037 140.38822 149 ft 13 kts 151°
2026-04-21 03:38 35.74959 140.38877 149 ft 13 kts 150°
2026-04-21 03:39 35.74897 140.38922 148 ft 5 kts 150°
2026-04-21 03:39 35.74868 140.38942 148 ft 5 kts 150°
2026-04-21 03:39 35.74840 140.38963 148 ft 5 kts 149°
2026-04-21 03:39 35.74810 140.38984 149 ft 6 kts 149°
2026-04-21 03:40 35.74750 140.39030 149 ft 15 kts 149°
2026-04-21 03:40 35.74639 140.39107 146 ft 20 kts 161°
2026-04-21 03:40 35.74570 140.39094 146 ft 0 kts 216°
2026-04-21 03:41 35.74555 140.39073 138 ft 7 kts 231°
2026-04-21 03:41 35.74517 140.39007 144 ft 12 kts 237°
2026-04-21 03:41 35.74540 140.38929 144 ft 11 kts 327°
2026-04-21 03:41 35.74566 140.38910 145 ft 0 kts 329°
2026-04-21 03:42 35.74568 140.38909 145 ft 4 kts 329°
2026-04-21 03:42 35.74837 140.38714 149 ft 85 kts 329°
2026-04-21 03:42 35.75563 140.38189 147 ft 153 kts 329°
2026-04-21 03:43 35.76638 140.37414 355 ft 195 kts 330°
2026-04-21 03:43 35.77428 140.36865 900 ft 196 kts 330°
2026-04-21 03:43 35.78692 140.35983 1406 ft 219 kts 331°
2026-04-21 03:43 35.80078 140.34989 1824 ft 237 kts 330°
2026-04-21 03:44 35.81524 140.33939 2393 ft 245 kts 330°
2026-04-21 03:44 35.82992 140.32865 3260 ft 245 kts 329°
2026-04-21 03:44 35.84456 140.31797 3664 ft 241 kts 328°
2026-04-21 03:44 35.85905 140.30738 3805 ft 246 kts 328°
2026-04-21 03:45 35.87393 140.29652 3843 ft 249 kts 328°
2026-04-21 03:45 35.88881 140.28566 3832 ft 248 kts 327°
2026-04-21 03:45 35.90360 140.27487 3846 ft 246 kts 327°
2026-04-21 03:45 35.91829 140.26415 3832 ft 245 kts 327°
2026-04-21 03:46 35.93291 140.25348 3831 ft 244 kts 327°
2026-04-21 03:46 35.94750 140.24277 3866 ft 244 kts 327°
2026-04-21 03:46 35.96222 140.23213 3836 ft 246 kts 329°
2026-04-21 03:46 35.97853 140.22584 3828 ft 252 kts 354°
2026-04-21 03:47 35.99603 140.22918 3827 ft 261 kts 17°
2026-04-21 03:47 36.01154 140.24131 3856 ft 271 kts 37°
2026-04-21 03:47 36.02518 140.25772 3854 ft 276 kts 39°
2026-04-21 03:47 36.03758 140.27601 3822 ft 282 kts 59°
2026-04-21 03:48 36.04306 140.29923 3835 ft 285 kts 83°
2026-04-21 03:48 36.04335 140.32365 3848 ft 284 kts 88°
2026-04-21 03:48 36.04322 140.34820 3834 ft 286 kts 87°
2026-04-21 03:48 36.04323 140.37274 3833 ft 287 kts 87°
2026-04-21 03:49 36.04333 140.39762 4166 ft 292 kts 87°
2026-04-21 03:49 36.04326 140.42270 4823 ft 300 kts 94°
2026-04-21 03:49 36.03724 140.44719 5722 ft 297 kts 119°
2026-04-21 03:49 36.02678 140.46945 6631 ft 297 kts 124°
2026-04-21 03:50 36.01582 140.49098 7313 ft 303 kts 125°
2026-04-21 03:50 36.00460 140.51322 8017 ft 307 kts 125°
2026-04-21 03:50 35.99325 140.53560 8737 ft 309 kts 129°
2026-04-21 03:50 35.97956 140.55597 9430 ft 309 kts 138°
2026-04-21 03:51 35.96458 140.57499 10098 ft 312 kts 140°
2026-04-21 03:51 35.94880 140.59461 10336 ft 331 kts 140°
2026-04-21 03:51 35.93221 140.61569 10502 ft 352 kts 139°
2026-04-21 03:51 35.91483 140.63825 10660 ft 372 kts 138°
2026-04-21 03:52 35.89676 140.66190 10973 ft 384 kts 138°
2026-04-21 03:52 35.87669 140.68327 11515 ft 379 kts 154°
2026-04-21 03:52 35.85398 140.69946 12218 ft 377 kts 156°
2026-04-21 03:52 35.83104 140.71538 12846 ft 379 kts 157°
2026-04-21 03:53 35.80793 140.73157 13436 ft 383 kts 157°
2026-04-21 03:53 35.78474 140.74804 13969 ft 387 kts 156°
2026-04-21 03:53 35.76121 140.76490 14461 ft 394 kts 157°
2026-04-21 03:53 35.73738 140.78205 14991 ft 399 kts 157°
2026-04-21 03:54 35.71333 140.79931 15468 ft 402 kts 158°
2026-04-21 03:54 35.68807 140.81363 15896 ft 398 kts 168°
2026-04-21 03:54 35.66183 140.82504 16335 ft 401 kts 170°
2026-04-21 03:54 35.63526 140.83584 16772 ft 404 kts 171°
2026-04-21 03:55 35.60839 140.84673 17199 ft 409 kts 171°
2026-04-21 03:55 35.58168 140.85773 17621 ft 413 kts 170°
2026-04-21 03:55 35.55428 140.86925 18036 ft 418 kts 170°
2026-04-21 03:55 35.52670 140.88101 18394 ft 422 kts 170°
2026-04-21 03:56 35.49898 140.89295 18767 ft 424 kts 170°
2026-04-21 03:56 35.47099 140.90504 19157 ft 426 kts 170°
2026-04-21 03:56 35.44291 140.91719 19521 ft 429 kts 170°
2026-04-21 03:56 35.41463 140.92939 19897 ft 432 kts 170°
2026-04-21 03:57 35.38616 140.94167 20267 ft 434 kts 170°
2026-04-21 03:57 35.35759 140.95398 20634 ft 437 kts 170°
2026-04-21 03:57 35.32886 140.96634 20995 ft 439 kts 170°
2026-04-21 03:57 35.29991 140.97879 21361 ft 442 kts 170°
2026-04-21 03:58 35.27084 140.99129 21712 ft 444 kts 170°
2026-04-21 03:58 35.24163 141.00383 22058 ft 446 kts 170°
2026-04-21 03:58 35.21221 141.01644 22399 ft 449 kts 170°
2026-04-21 03:58 35.18273 141.02917 22759 ft 451 kts 169°
2026-04-21 03:59 35.15315 141.04216 23095 ft 453 kts 169°
2026-04-21 03:59 35.12343 141.05530 23428 ft 455 kts 169°
2026-04-21 03:59 35.09358 141.06851 23716 ft 456 kts 169°
2026-04-21 04:00 35.03379 141.09491 24314 ft 458 kts 169°
2026-04-21 04:00 35.00377 141.10812 24587 ft 459 kts 169°
2026-04-21 04:00 34.97362 141.12136 24865 ft 461 kts 169°
2026-04-21 04:00 34.94341 141.13462 25151 ft 462 kts 169°
2026-04-21 04:01 34.91314 141.14789 25429 ft 463 kts 169°
2026-04-21 04:01 34.88280 141.16119 25691 ft 464 kts 169°
2026-04-21 04:01 34.85242 141.17449 25945 ft 465 kts 169°
2026-04-21 04:01 34.82230 141.18767 26187 ft 466 kts 169°
2026-04-21 04:02 34.79172 141.20103 26433 ft 468 kts 169°
2026-04-21 04:02 34.76099 141.21442 26671 ft 469 kts 169°
2026-04-21 04:02 34.72983 141.22795 26895 ft 470 kts 169°
2026-04-21 04:02 34.69926 141.24119 27006 ft 474 kts 169°
2026-04-21 04:03 34.66819 141.25464 27253 ft 474 kts 169°
2026-04-21 04:03 34.63715 141.26808 27585 ft 473 kts 169°
2026-04-21 04:03 34.60623 141.28152 27940 ft 471 kts 169°
2026-04-21 04:03 34.57538 141.29494 28261 ft 470 kts 169°
2026-04-21 04:04 34.54461 141.30832 28562 ft 469 kts 169°
2026-04-21 04:04 34.51384 141.32168 28843 ft 470 kts 169°
2026-04-21 04:04 34.48309 141.33502 29140 ft 469 kts 169°
2026-04-21 04:04 34.45238 141.34834 29480 ft 468 kts 169°
2026-04-21 04:05 34.42174 141.36162 29812 ft 467 kts 169°
2026-04-21 04:05 34.39111 141.37487 30086 ft 467 kts 169°
2026-04-21 04:05 34.36053 141.38810 30315 ft 467 kts 169°
2026-04-21 04:05 34.32989 141.40134 30552 ft 467 kts 170°
2026-04-21 04:06 34.29926 141.41456 30790 ft 467 kts 170°
2026-04-21 04:06 34.26881 141.42927 30852 ft 480 kts 161°
2026-04-21 04:06 34.24069 141.45218 30893 ft 498 kts 146°
2026-04-21 04:06 34.21720 141.48294 30875 ft 511 kts 131°
2026-04-21 04:07 34.19896 141.51998 30904 ft 514 kts 124°
2026-04-21 04:07 34.16547 141.59614 30886 ft 511 kts 123°
2026-04-21 04:08 34.13202 141.67143 30881 ft 508 kts 124°
2026-04-21 04:08 34.09789 141.74593 30894 ft 506 kts 125°
2026-04-21 04:09 34.06359 141.81989 30899 ft 505 kts 125°
2026-04-21 04:09 34.02920 141.89395 30907 ft 506 kts 125°
2026-04-21 04:10 33.99479 141.96806 30900 ft 507 kts 125°
2026-04-21 04:10 33.96031 142.04221 30913 ft 508 kts 125°
2026-04-21 04:11 33.92589 142.11609 30908 ft 509 kts 125°
2026-04-21 04:11 33.89114 142.19029 30916 ft 509 kts 125°
2026-04-21 04:12 33.85591 142.26423 30916 ft 509 kts 125°
2026-04-21 04:12 33.81379 142.33021 30930 ft 485 kts 150°
2026-04-21 04:12 33.78561 142.35117 30919 ft 470 kts 163°
2026-04-21 04:13 33.75522 142.36343 30915 ft 452 kts 179°
2026-04-21 04:13 33.69342 142.37559 30926 ft 452 kts 179°
2026-04-21 04:14 33.63177 142.38886 30921 ft 453 kts 178°
2026-04-21 04:14 33.56969 142.40270 30923 ft 454 kts 178°
2026-04-21 04:15 33.50740 142.41662 30930 ft 455 kts 178°
2026-04-21 04:15 33.44512 142.43048 30940 ft 456 kts 178°
2026-04-21 04:16 33.38271 142.44432 30935 ft 456 kts 178°
2026-04-21 04:16 33.32014 142.45817 30941 ft 457 kts 178°
2026-04-21 04:17 33.25763 142.47198 30941 ft 457 kts 178°
2026-04-21 04:17 33.19512 142.48578 30950 ft 457 kts 178°
2026-04-21 04:18 33.13267 142.49955 30939 ft 456 kts 178°
2026-04-21 04:18 33.07020 142.51329 30951 ft 456 kts 178°
2026-04-21 04:19 33.00820 142.52691 30935 ft 456 kts 178°
2026-04-21 04:19 32.94589 142.54058 30943 ft 455 kts 178°
2026-04-21 04:20 32.88358 142.55424 30950 ft 455 kts 178°
2026-04-21 04:20 32.82134 142.56785 30957 ft 455 kts 178°
2026-04-21 04:21 32.75908 142.58145 30954 ft 454 kts 178°
2026-04-21 04:21 32.69689 142.59501 30958 ft 454 kts 178°
2026-04-21 04:22 32.63465 142.60857 30959 ft 455 kts 178°
2026-04-21 04:22 32.57246 142.62210 30961 ft 455 kts 178°
2026-04-21 04:23 32.51017 142.63562 30962 ft 455 kts 178°
2026-04-21 04:23 32.44787 142.64914 30966 ft 455 kts 178°
2026-04-21 04:24 32.38554 142.66264 30964 ft 456 kts 178°
2026-04-21 04:24 32.32353 142.67605 30970 ft 456 kts 178°
2026-04-21 04:25 32.26101 142.68955 30966 ft 456 kts 178°
2026-04-21 04:25 32.19852 142.70303 30971 ft 457 kts 178°
2026-04-21 04:26 32.13592 142.71652 30966 ft 457 kts 178°
2026-04-21 04:26 32.07328 142.72999 30970 ft 457 kts 178°
2026-04-21 04:27 32.01066 142.74344 30967 ft 458 kts 178°
2026-04-21 04:27 31.94804 142.75688 30974 ft 458 kts 178°
2026-04-21 04:28 31.88531 142.77032 30969 ft 458 kts 178°
2026-04-21 04:28 31.82265 142.78372 30975 ft 457 kts 178°
2026-04-21 04:29 31.77059 142.79485 30973 ft 457 kts 178°
2026-04-21 04:29 31.70799 142.80821 30979 ft 457 kts 178°
2026-04-21 04:30 31.63541 142.82367 30976 ft 456 kts 178°
2026-04-21 04:30 31.57301 142.83695 30980 ft 455 kts 178°
2026-04-21 04:31 31.52078 142.84805 30977 ft 454 kts 178°
2026-04-21 04:31 31.45868 142.86123 30981 ft 453 kts 179°
2026-04-21 04:32 31.39712 142.87428 30977 ft 452 kts 179°
2026-04-21 04:32 31.33526 142.88737 30979 ft 451 kts 179°
2026-04-21 04:33 31.27361 142.90040 30977 ft 450 kts 179°
2026-04-21 04:33 31.21199 142.91340 30981 ft 449 kts 179°
2026-04-21 04:34 31.15048 142.92637 30981 ft 448 kts 179°
2026-04-21 04:34 31.08906 142.93930 30990 ft 448 kts 179°
2026-04-21 04:35 31.02777 142.95218 30979 ft 447 kts 179°
2026-04-21 04:35 30.96650 142.96504 30988 ft 447 kts 179°
2026-04-21 04:36 30.90526 142.97788 30983 ft 447 kts 179°
2026-04-21 04:36 30.84395 142.99072 30988 ft 447 kts 179°
2026-04-21 04:37 30.78309 143.00345 30988 ft 447 kts 179°
2026-04-21 04:37 30.72180 143.01625 30990 ft 448 kts 179°
2026-04-21 04:38 30.66049 143.02904 30986 ft 448 kts 179°
2026-04-21 04:38 30.59908 143.04183 30987 ft 448 kts 179°
2026-04-21 04:39 30.53771 143.05460 30985 ft 448 kts 179°
2026-04-21 04:39 30.47632 143.06736 30990 ft 448 kts 179°
2026-04-21 04:40 30.41487 143.08011 30985 ft 448 kts 179°
2026-04-21 04:40 30.35367 143.09277 30880 ft 454 kts 177°
2026-04-21 04:41 30.29096 143.10572 30990 ft 462 kts 177°
2026-04-21 04:41 30.22689 143.11896 31004 ft 472 kts 176°
2026-04-21 04:42 30.16158 143.13246 30999 ft 481 kts 176°
2026-04-21 04:42 30.09544 143.14614 30982 ft 483 kts 176°
2026-04-21 04:43 30.02923 143.15981 30982 ft 483 kts 176°
2026-04-21 04:43 29.96311 143.17416 30981 ft 484 kts 174°
2026-04-21 04:44 29.89728 143.19054 30983 ft 484 kts 174°
2026-04-21 04:44 29.83154 143.20719 30989 ft 483 kts 174°
2026-04-21 04:45 29.76630 143.22343 30992 ft 482 kts 174°
2026-04-21 04:45 29.70063 143.23956 30984 ft 481 kts 174°
2026-04-21 04:46 29.63519 143.25556 30983 ft 481 kts 174°
2026-04-21 04:46 29.56974 143.27155 30986 ft 480 kts 174°
2026-04-21 04:47 29.50441 143.28749 30984 ft 479 kts 174°
2026-04-21 04:47 29.43921 143.30339 30985 ft 479 kts 174°
2026-04-21 04:48 29.37404 143.31926 30988 ft 479 kts 174°
2026-04-21 04:48 29.30923 143.33502 30982 ft 479 kts 174°
2026-04-21 04:49 29.24403 143.35085 30985 ft 479 kts 174°
2026-04-21 04:49 29.17888 143.36665 30983 ft 479 kts 174°
2026-04-21 04:50 29.11358 143.38247 30984 ft 479 kts 174°
2026-04-21 04:50 29.04828 143.39827 30985 ft 480 kts 174°
2026-04-21 04:51 28.98302 143.41404 30983 ft 480 kts 174°
2026-04-21 04:51 28.91767 143.42981 30980 ft 480 kts 174°
2026-04-21 04:52 28.85225 143.44558 30987 ft 480 kts 174°
2026-04-21 04:52 28.78693 143.46130 30977 ft 480 kts 174°
2026-04-21 04:53 28.72149 143.47703 30980 ft 480 kts 174°
2026-04-21 04:53 28.65620 143.49271 30974 ft 480 kts 174°
2026-04-21 04:54 28.59126 143.50828 30970 ft 479 kts 174°
2026-04-21 04:54 28.52600 143.52391 30985 ft 479 kts 174°
2026-04-21 04:55 28.46077 143.53951 30976 ft 479 kts 174°
2026-04-21 04:55 28.39557 143.55508 30979 ft 479 kts 174°
2026-04-21 04:56 28.33032 143.57065 30977 ft 478 kts 174°
2026-04-21 04:56 28.26518 143.58617 30980 ft 478 kts 174°
2026-04-21 04:57 28.20003 143.60167 30978 ft 478 kts 174°
2026-04-21 04:57 28.13490 143.61715 30978 ft 478 kts 174°
2026-04-21 04:58 28.06977 143.63261 30979 ft 478 kts 174°
2026-04-21 04:58 28.00459 143.64806 30978 ft 478 kts 174°
2026-04-21 04:59 27.93984 143.66339 30978 ft 478 kts 174°
2026-04-21 04:59 27.87468 143.67880 30978 ft 478 kts 173°
2026-04-21 05:00 27.80949 143.69420 30979 ft 478 kts 173°
2026-04-21 05:00 27.71171 143.71726 30979 ft 479 kts 173°
2026-04-21 05:01 27.64644 143.73263 30976 ft 479 kts 173°
2026-04-21 05:01 27.58113 143.74799 30982 ft 479 kts 173°
2026-04-21 05:02 27.51584 143.76333 30978 ft 479 kts 173°
2026-04-21 05:02 27.45048 143.77867 30977 ft 479 kts 173°
2026-04-21 05:03 27.38517 143.79397 30984 ft 479 kts 173°
2026-04-21 05:03 27.32022 143.80917 30981 ft 480 kts 173°
2026-04-21 05:04 27.25481 143.82446 30978 ft 480 kts 173°
2026-04-21 05:04 27.18932 143.83976 30975 ft 480 kts 173°
2026-04-21 05:05 27.12382 143.85503 30982 ft 481 kts 173°
2026-04-21 05:05 27.05830 143.87030 30984 ft 481 kts 173°
2026-04-21 05:06 26.99278 143.88554 30974 ft 481 kts 173°
2026-04-21 05:06 26.92727 143.90076 30987 ft 481 kts 173°
2026-04-21 05:07 26.86208 143.91590 30982 ft 481 kts 173°
2026-04-21 05:07 26.79650 143.93110 30982 ft 481 kts 173°
2026-04-21 05:08 26.73084 143.94631 30982 ft 482 kts 173°
2026-04-21 05:08 26.66516 143.96150 30980 ft 482 kts 173°
2026-04-21 05:09 26.59953 143.97666 30982 ft 482 kts 173°
2026-04-21 05:09 26.53373 143.99184 30982 ft 482 kts 173°
2026-04-21 05:10 26.46793 144.00701 30980 ft 482 kts 172°
2026-04-21 05:10 26.40220 144.02214 30984 ft 483 kts 172°
2026-04-21 05:11 26.33678 144.03718 30985 ft 483 kts 172°
2026-04-21 05:11 26.27094 144.05231 30978 ft 483 kts 172°
2026-04-21 05:12 26.20505 144.06742 30979 ft 484 kts 172°
2026-04-21 05:12 26.13910 144.08253 30983 ft 484 kts 172°
2026-04-21 05:13 26.07318 144.09762 30981 ft 484 kts 172°
2026-04-21 05:13 26.00729 144.11269 30982 ft 484 kts 172°
2026-04-21 05:14 25.94126 144.12776 30978 ft 484 kts 172°
2026-04-21 05:14 25.87524 144.14282 30984 ft 484 kts 172°
2026-04-21 05:15 25.80924 144.15786 30990 ft 484 kts 172°
2026-04-21 05:15 25.74312 144.17291 30986 ft 485 kts 172°
2026-04-21 05:16 25.67712 144.18791 30985 ft 485 kts 172°
2026-04-21 05:16 25.61102 144.20292 30985 ft 485 kts 172°
2026-04-21 05:17 25.54531 144.21783 30986 ft 485 kts 172°
2026-04-21 05:17 25.47917 144.23281 30987 ft 485 kts 171°
2026-04-21 05:18 25.41294 144.24780 30987 ft 485 kts 171°
2026-04-21 05:18 25.34672 144.26277 30987 ft 485 kts 171°
2026-04-21 05:19 25.29169 144.27520 30987 ft 486 kts 171°
2026-04-21 05:19 25.22551 144.29013 30991 ft 486 kts 171°
2026-04-21 05:20 25.14850 144.30748 30989 ft 486 kts 171°
2026-04-21 05:20 25.09302 144.31997 30987 ft 486 kts 171°
2026-04-21 05:21 25.02713 144.33479 30985 ft 486 kts 171°
2026-04-21 05:21 24.96090 144.34958 30990 ft 485 kts 171°
2026-04-21 05:22 24.89471 144.36415 30990 ft 485 kts 171°
2026-04-21 05:22 24.82840 144.37870 30991 ft 485 kts 171°
2026-04-21 05:23 24.76223 144.39324 30989 ft 485 kts 171°
2026-04-21 05:23 24.69646 144.40770 30991 ft 485 kts 171°
2026-04-21 05:24 24.63036 144.42221 30993 ft 484 kts 171°
2026-04-21 05:24 24.56432 144.43670 30996 ft 484 kts 171°
2026-04-21 05:25 24.49818 144.45119 30994 ft 484 kts 171°
2026-04-21 05:25 24.43222 144.46563 30992 ft 483 kts 171°
2026-04-21 05:26 24.36618 144.48006 30992 ft 483 kts 171°
2026-04-21 05:26 24.30021 144.49447 30994 ft 483 kts 171°
2026-04-21 05:27 24.23470 144.50876 30995 ft 483 kts 171°
2026-04-21 05:27 24.16881 144.52312 30992 ft 483 kts 171°
2026-04-21 05:28 24.10296 144.53745 30991 ft 483 kts 171°
2026-04-21 05:28 24.03713 144.55177 30993 ft 482 kts 171°
2026-04-21 05:29 23.97127 144.56608 30997 ft 482 kts 171°
2026-04-21 05:29 23.90537 144.58037 30999 ft 482 kts 171°
2026-04-21 05:30 23.83950 144.59465 30998 ft 482 kts 171°
2026-04-21 05:30 23.77414 144.60881 30995 ft 482 kts 171°
2026-04-21 05:31 23.70829 144.62305 30995 ft 482 kts 171°
2026-04-21 05:31 23.64255 144.63726 30995 ft 482 kts 171°
2026-04-21 05:32 23.57681 144.65145 30996 ft 481 kts 171°
2026-04-21 05:32 23.51101 144.66564 30995 ft 481 kts 171°
2026-04-21 05:33 23.44525 144.67981 30994 ft 481 kts 171°
2026-04-21 05:33 23.37959 144.69395 30992 ft 481 kts 171°
2026-04-21 05:34 23.31444 144.70796 30992 ft 480 kts 171°
2026-04-21 05:34 23.24892 144.72203 30992 ft 480 kts 171°
2026-04-21 05:35 23.18331 144.73611 30989 ft 480 kts 171°
2026-04-21 05:35 23.11783 144.75015 30989 ft 479 kts 171°
2026-04-21 05:36 23.05236 144.76418 30990 ft 479 kts 171°
2026-04-21 05:36 22.98686 144.77819 30991 ft 479 kts 171°
2026-04-21 05:37 22.92154 144.79215 30989 ft 479 kts 171°
2026-04-21 05:37 22.85612 144.80612 30988 ft 479 kts 171°
2026-04-21 05:38 22.79080 144.82005 30987 ft 478 kts 171°
2026-04-21 05:38 22.72584 144.83390 30990 ft 478 kts 171°
2026-04-21 05:39 22.66053 144.84780 30989 ft 478 kts 171°
2026-04-21 05:39 22.59528 144.86168 30990 ft 478 kts 171°
2026-04-21 05:40 22.52997 144.87556 30990 ft 478 kts 172°
2026-04-21 05:40 22.46470 144.88942 30987 ft 478 kts 172°
2026-04-21 05:41 22.39943 144.90326 30983 ft 478 kts 172°
2026-04-21 05:41 22.33418 144.91709 30989 ft 477 kts 172°
2026-04-21 05:42 22.26943 144.93079 30986 ft 477 kts 172°
2026-04-21 05:42 22.20426 144.94458 30983 ft 477 kts 172°
2026-04-21 05:43 22.13909 144.95835 30984 ft 477 kts 172°
2026-04-21 05:43 22.07399 144.97209 30988 ft 476 kts 172°
2026-04-21 05:44 22.00896 144.98581 30992 ft 476 kts 173°
2026-04-21 05:44 21.94394 144.99951 30978 ft 476 kts 173°
2026-04-21 05:45 21.87898 145.01318 30982 ft 475 kts 173°
2026-04-21 05:45 21.81406 145.02684 30980 ft 475 kts 173°
2026-04-21 05:46 21.74959 145.04038 30983 ft 475 kts 173°
2026-04-21 05:46 21.68468 145.05401 30986 ft 474 kts 173°
2026-04-21 05:47 21.61986 145.06760 30980 ft 474 kts 173°
2026-04-21 05:47 21.55515 145.08116 30977 ft 474 kts 173°
2026-04-21 05:48 21.49085 145.09462 30976 ft 473 kts 173°
2026-04-21 05:48 21.42628 145.10813 30983 ft 473 kts 173°
2026-04-21 05:49 21.36161 145.12164 30974 ft 473 kts 173°
2026-04-21 05:49 21.29693 145.13514 30979 ft 473 kts 173°
2026-04-21 05:50 21.23228 145.14863 30979 ft 473 kts 173°
2026-04-21 05:50 21.16764 145.16210 30981 ft 473 kts 173°
2026-04-21 05:51 21.10339 145.17549 30979 ft 474 kts 173°
2026-04-21 05:51 21.03869 145.18895 30982 ft 474 kts 173°
2026-04-21 05:52 20.97357 145.19659 30973 ft 466 kts 187°
2026-04-21 05:52 20.90903 145.19213 30969 ft 465 kts 188°
2026-04-21 05:53 20.84443 145.18706 30973 ft 465 kts 188°
2026-04-21 05:53 20.78014 145.18242 30975 ft 466 kts 188°
2026-04-21 05:54 20.71540 145.17805 30971 ft 466 kts 188°
2026-04-21 05:54 20.65063 145.17378 30974 ft 467 kts 188°
2026-04-21 05:55 20.58578 145.16951 30973 ft 467 kts 188°
2026-04-21 05:55 20.52089 145.16522 30973 ft 467 kts 188°
2026-04-21 05:56 20.45600 145.16094 30970 ft 467 kts 188°
2026-04-21 05:56 20.39100 145.15664 30974 ft 467 kts 187°
2026-04-21 05:57 20.32611 145.15236 30972 ft 467 kts 187°
2026-04-21 05:57 20.26166 145.14811 30972 ft 467 kts 187°
2026-04-21 05:58 20.19668 145.14383 30970 ft 467 kts 187°
2026-04-21 05:58 20.13180 145.13956 30968 ft 467 kts 187°
2026-04-21 05:59 20.06695 145.13530 30967 ft 466 kts 187°
2026-04-21 06:00 19.96979 145.12891 30968 ft 466 kts 187°
2026-04-21 06:00 19.90502 145.12466 30967 ft 466 kts 187°
2026-04-21 06:01 19.84033 145.12042 30964 ft 466 kts 187°
2026-04-21 06:01 19.77566 145.11618 30964 ft 466 kts 187°
2026-04-21 06:02 19.71139 145.11197 30961 ft 466 kts 187°
2026-04-21 06:02 19.64672 145.10774 30959 ft 466 kts 187°
2026-04-21 06:03 19.58202 145.10351 30963 ft 466 kts 187°
2026-04-21 06:03 19.51736 145.09929 30967 ft 466 kts 187°
2026-04-21 06:04 19.45270 145.09507 30959 ft 466 kts 187°
2026-04-21 06:04 19.38800 145.09085 30960 ft 466 kts 187°
2026-04-21 06:05 19.32327 145.08663 30961 ft 466 kts 187°
2026-04-21 06:05 19.25859 145.08242 30959 ft 466 kts 187°
2026-04-21 06:06 19.19384 145.07821 30957 ft 466 kts 187°
2026-04-21 06:06 19.12912 145.07400 30960 ft 466 kts 187°
2026-04-21 06:07 19.06432 145.06979 30955 ft 466 kts 187°
2026-04-21 06:07 18.99959 145.06559 30954 ft 466 kts 187°
2026-04-21 06:08 18.93528 145.06142 30955 ft 466 kts 187°
2026-04-21 06:08 18.87050 145.05722 30955 ft 466 kts 187°
2026-04-21 06:09 18.80573 145.05303 30958 ft 466 kts 187°
2026-04-21 06:09 18.74094 145.04884 30955 ft 466 kts 186°
2026-04-21 06:10 18.67613 145.04465 30945 ft 466 kts 186°
2026-04-21 06:10 18.61135 145.04046 30951 ft 466 kts 186°
2026-04-21 06:11 18.54657 145.03628 30954 ft 466 kts 186°
2026-04-21 06:11 18.48228 145.03213 30949 ft 466 kts 186°
2026-04-21 06:12 18.41760 145.02796 30947 ft 466 kts 186°
2026-04-21 06:12 18.35285 145.02379 30951 ft 465 kts 186°
2026-04-21 06:13 18.29874 145.02031 30948 ft 465 kts 186°
2026-04-21 06:13 18.23447 145.01618 30946 ft 465 kts 186°
2026-04-21 06:14 18.16987 145.01202 30947 ft 465 kts 186°
2026-04-21 06:14 18.10530 145.00788 30942 ft 465 kts 186°
2026-04-21 06:15 18.04064 145.00373 30945 ft 465 kts 186°
2026-04-21 06:15 17.97594 144.99958 30942 ft 465 kts 186°
2026-04-21 06:16 17.91139 144.99544 30940 ft 465 kts 186°
2026-04-21 06:16 17.84675 144.99130 30945 ft 465 kts 186°
2026-04-21 06:17 17.78212 144.98717 30943 ft 465 kts 186°
2026-04-21 06:17 17.71753 144.98304 30945 ft 465 kts 186°
2026-04-21 06:18 17.65328 144.97910 30946 ft 465 kts 186°
2026-04-21 06:18 17.58864 144.97527 30943 ft 465 kts 185°
2026-04-21 06:19 17.52399 144.97144 30944 ft 466 kts 185°
2026-04-21 06:19 17.45925 144.96758 30942 ft 466 kts 185°
2026-04-21 06:20 17.39452 144.96371 30944 ft 466 kts 185°
2026-04-21 06:20 17.32983 144.95984 30944 ft 466 kts 185°
2026-04-21 06:21 17.26506 144.95598 30943 ft 466 kts 185°
2026-04-21 06:21 17.20075 144.95214 30941 ft 466 kts 185°
2026-04-21 06:22 17.13602 144.94828 30941 ft 466 kts 185°
2026-04-21 06:22 17.07128 144.94443 30936 ft 466 kts 185°
2026-04-21 06:23 17.00652 144.94058 30938 ft 466 kts 185°
2026-04-21 06:23 16.94176 144.93672 30939 ft 466 kts 185°
2026-04-21 06:24 16.87701 144.93288 30939 ft 466 kts 185°
2026-04-21 06:24 16.81226 144.92903 30942 ft 466 kts 185°
2026-04-21 06:25 16.74744 144.92518 30940 ft 466 kts 185°
2026-04-21 06:25 16.68264 144.92134 30941 ft 466 kts 185°
2026-04-21 06:26 16.61825 144.91752 30940 ft 466 kts 185°
2026-04-21 06:26 16.55338 144.91368 30938 ft 466 kts 185°
2026-04-21 06:27 16.48850 144.90984 30936 ft 466 kts 185°
2026-04-21 06:27 16.42368 144.90601 30934 ft 466 kts 185°
2026-04-21 06:28 16.35891 144.90218 30933 ft 467 kts 185°
2026-04-21 06:28 16.29403 144.89835 30934 ft 467 kts 185°
2026-04-21 06:29 16.22918 144.89452 30935 ft 467 kts 185°
2026-04-21 06:29 16.16429 144.89069 30937 ft 467 kts 185°
2026-04-21 06:30 16.09940 144.88687 30935 ft 467 kts 185°
2026-04-21 06:30 16.03455 144.88304 30937 ft 467 kts 185°
2026-04-21 06:31 15.97004 144.87925 30934 ft 467 kts 185°
2026-04-21 06:31 15.90511 144.87543 30934 ft 467 kts 185°
2026-04-21 06:32 15.84011 144.87160 30935 ft 467 kts 185°
2026-04-21 06:32 15.77520 144.86779 30934 ft 468 kts 185°
2026-04-21 06:33 15.71015 144.86397 30933 ft 468 kts 185°
2026-04-21 06:33 15.64513 144.86015 30936 ft 468 kts 185°
2026-04-21 06:34 15.58011 144.85634 30931 ft 468 kts 185°
2026-04-21 06:34 15.51504 144.85253 30931 ft 468 kts 185°
2026-04-21 06:35 15.45002 144.84872 30933 ft 468 kts 184°
2026-04-21 06:35 15.38498 144.84491 30929 ft 468 kts 184°
2026-04-21 06:36 15.32037 144.84113 30929 ft 468 kts 184°
2026-04-21 06:36 15.25583 144.83736 30918 ft 460 kts 184°
2026-04-21 06:37 15.19191 144.83362 30934 ft 460 kts 184°
2026-04-21 06:37 15.15985 144.83174 30622 ft 464 kts 184°
2026-04-21 06:37 15.12773 144.82987 30249 ft 458 kts 185°
2026-04-21 06:37 15.09616 144.82735 29761 ft 453 kts 186°
2026-04-21 06:38 15.06496 144.82408 29235 ft 449 kts 187°
2026-04-21 06:38 15.03404 144.82052 28737 ft 445 kts 187°
2026-04-21 06:38 15.00340 144.81694 28234 ft 441 kts 187°
2026-04-21 06:38 14.97296 144.81344 27759 ft 438 kts 187°
2026-04-21 06:39 14.94279 144.81005 27277 ft 434 kts 187°
2026-04-21 06:39 14.91286 144.80676 26802 ft 431 kts 187°
2026-04-21 06:39 14.88311 144.80353 26335 ft 429 kts 187°
2026-04-21 06:39 14.85349 144.80034 25857 ft 426 kts 187°
2026-04-21 06:40 14.82441 144.79723 25377 ft 425 kts 187°
2026-04-21 06:40 14.79510 144.79409 24898 ft 423 kts 187°
2026-04-21 06:40 14.76592 144.79097 24423 ft 421 kts 187°
2026-04-21 06:40 14.73675 144.78785 23949 ft 420 kts 187°
2026-04-21 06:41 14.70775 144.78474 23468 ft 419 kts 187°
2026-04-21 06:41 14.67877 144.78164 22927 ft 417 kts 187°
2026-04-21 06:41 14.64999 144.77857 22443 ft 414 kts 187°
2026-04-21 06:41 14.62142 144.77551 21966 ft 411 kts 187°
2026-04-21 06:42 14.59304 144.77248 21501 ft 409 kts 187°
2026-04-21 06:42 14.56483 144.76947 21048 ft 406 kts 187°
2026-04-21 06:42 14.53684 144.76648 20590 ft 403 kts 187°
2026-04-21 06:42 14.50901 144.76350 20137 ft 401 kts 187°
2026-04-21 06:43 14.48128 144.76054 19674 ft 399 kts 187°
2026-04-21 06:43 14.45363 144.75759 19213 ft 398 kts 187°
2026-04-21 06:43 14.42617 144.75466 18766 ft 396 kts 187°
2026-04-21 06:43 14.39883 144.75174 18305 ft 395 kts 187°
2026-04-21 06:44 14.37156 144.74883 17803 ft 393 kts 186°
2026-04-21 06:44 14.34442 144.74594 17322 ft 390 kts 186°
2026-04-21 06:44 14.31753 144.74307 16884 ft 387 kts 186°
2026-04-21 06:44 14.29122 144.74026 16449 ft 384 kts 186°
2026-04-21 06:45 14.26479 144.73745 16017 ft 381 kts 186°
2026-04-21 06:45 14.23854 144.73465 15580 ft 377 kts 186°
2026-04-21 06:45 14.21250 144.73187 15161 ft 375 kts 186°
2026-04-21 06:45 14.18664 144.72911 14739 ft 372 kts 186°
2026-04-21 06:46 14.16099 144.72638 14311 ft 369 kts 186°
2026-04-21 06:46 14.13557 144.72367 13883 ft 367 kts 186°
2026-04-21 06:46 14.11035 144.72099 13421 ft 358 kts 186°
2026-04-21 06:46 14.08599 144.71840 12971 ft 347 kts 186°
2026-04-21 06:47 14.06238 144.71589 12568 ft 336 kts 186°
2026-04-21 06:47 14.03945 144.71345 12179 ft 326 kts 186°
2026-04-21 06:47 14.01712 144.71108 11805 ft 317 kts 186°
2026-04-21 06:47 13.99544 144.70877 11439 ft 309 kts 186°
2026-04-21 06:48 13.97454 144.70655 11093 ft 302 kts 186°
2026-04-21 06:48 13.95388 144.70435 10747 ft 295 kts 186°
2026-04-21 06:48 13.93373 144.70221 10525 ft 285 kts 186°
2026-04-21 06:48 13.91447 144.70017 10394 ft 272 kts 186°
2026-04-21 06:49 13.89597 144.69820 10270 ft 263 kts 186°
2026-04-21 06:49 13.87799 144.69629 10162 ft 257 kts 186°
2026-04-21 06:49 13.86036 144.69442 10060 ft 254 kts 186°
2026-04-21 06:49 13.84258 144.69253 9975 ft 260 kts 186°
2026-04-21 06:50 13.82444 144.69060 9742 ft 264 kts 186°
2026-04-21 06:50 13.80611 144.68866 9473 ft 266 kts 186°
2026-04-21 06:50 13.78772 144.68670 9204 ft 266 kts 186°
2026-04-21 06:50 13.76951 144.68477 8958 ft 257 kts 186°
2026-04-21 06:51 13.75212 144.68292 8671 ft 245 kts 186°
2026-04-21 06:51 13.73557 144.68117 8411 ft 232 kts 186°
2026-04-21 06:51 13.71979 144.67949 8157 ft 225 kts 185°
2026-04-21 06:51 13.70437 144.67785 7926 ft 220 kts 185°
2026-04-21 06:52 13.68942 144.67627 7722 ft 220 kts 185°
2026-04-21 06:52 13.67404 144.67464 7484 ft 225 kts 185°
2026-04-21 06:52 13.65835 144.67298 7260 ft 227 kts 185°
2026-04-21 06:52 13.64255 144.67130 7028 ft 229 kts 185°
2026-04-21 06:53 13.62658 144.66961 6786 ft 232 kts 185°
2026-04-21 06:53 13.61058 144.66791 6540 ft 230 kts 185°
2026-04-21 06:53 13.59551 144.66311 6283 ft 227 kts 209°
2026-04-21 06:53 13.58315 144.65335 6051 ft 224 kts 227°
2026-04-21 06:54 13.57367 144.64075 5844 ft 221 kts 233°
2026-04-21 06:54 13.56410 144.62868 5615 ft 214 kts 226°
2026-04-21 06:54 13.55373 144.61822 5395 ft 205 kts 220°
2026-04-21 06:54 13.54282 144.60920 5185 ft 197 kts 215°
2026-04-21 06:55 13.53164 144.60157 4980 ft 190 kts 209°
2026-04-21 06:55 13.52024 144.59522 4780 ft 183 kts 204°
2026-04-21 06:55 13.50859 144.58999 4660 ft 182 kts 199°
2026-04-21 06:55 13.49630 144.58571 4424 ft 186 kts 194°
2026-04-21 06:56 13.48407 144.58263 4206 ft 177 kts 188°
2026-04-21 06:56 13.47226 144.58070 4061 ft 170 kts 183°
2026-04-21 06:56 13.46051 144.57976 3987 ft 171 kts 179°
2026-04-21 06:56 13.44854 144.57976 3926 ft 173 kts 174°
2026-04-21 06:57 13.43654 144.58060 3841 ft 172 kts 170°
2026-04-21 06:57 13.42484 144.58266 3746 ft 169 kts 161°
2026-04-21 06:57 13.41510 144.58855 3691 ft 160 kts 132°
2026-04-21 06:57 13.40841 144.59748 3609 ft 156 kts 114°
2026-04-21 06:58 13.40539 144.60802 3551 ft 155 kts 95°
2026-04-21 06:58 13.40757 144.61866 3580 ft 157 kts 68°
2026-04-21 06:58 13.41131 144.62969 3374 ft 161 kts 72°
2026-04-21 06:58 13.41481 144.64060 3173 ft 158 kts 69°
2026-04-21 06:59 13.41892 144.65116 2992 ft 162 kts 65°
2026-04-21 06:59 13.42355 144.66188 2743 ft 165 kts 66°
2026-04-21 06:59 13.42823 144.67229 2537 ft 155 kts 63°
2026-04-21 06:59 13.43269 144.68215 2373 ft 151 kts 64°
2026-04-21 07:00 13.43712 144.69191 2176 ft 150 kts 65°
2026-04-21 07:00 13.44160 144.70183 1976 ft 156 kts 64°
2026-04-21 07:00 13.44623 144.71199 1754 ft 157 kts 65°
2026-04-21 07:00 13.45069 144.72182 1582 ft 147 kts 64°
2026-04-21 07:01 13.45499 144.73134 1377 ft 144 kts 65°
2026-04-21 07:01 13.45931 144.74087 1205 ft 151 kts 63°
2026-04-21 07:01 13.46683 144.75716 689 ft 149 kts 67°
2026-04-21 07:02 13.47103 144.76662 465 ft 142 kts 66°
2026-04-21 07:02 13.47512 144.77553 297 ft 134 kts 65°
2026-04-21 07:02 13.48020 144.78671 262 ft 124 kts 65°
2026-04-21 07:02 13.48349 144.79393 269 ft 89 kts 64°
2026-04-21 07:03 13.48463 144.79651 272 ft 31 kts 65°
2026-04-21 07:03 13.48552 144.79841 277 ft 29 kts 64°
2026-04-21 07:03 13.48634 144.80018 286 ft 27 kts 64°
2026-04-21 07:03 13.48694 144.80133 293 ft 18 kts 58°
2026-04-21 07:04 13.48762 144.80235 292 ft 17 kts 49°
2026-04-21 07:04 13.48848 144.80313 295 ft 16 kts 37°
2026-04-21 07:04 13.48922 144.80366 294 ft 12 kts 36°
2026-04-21 07:04 13.48989 144.80419 293 ft 12 kts 44°
2026-04-21 07:05 13.49037 144.80488 298 ft 12 kts 58°
2026-04-21 07:05 13.49077 144.80559 297 ft 11 kts 62°
2026-04-21 07:05 13.49114 144.80630 299 ft 11 kts 62°
2026-04-21 07:05 13.49150 144.80699 300 ft 11 kts 61°
2026-04-21 07:06 13.49185 144.80765 301 ft 10 kts 61°
2026-04-21 07:06 13.49219 144.80830 305 ft 10 kts 62°
2026-04-21 07:06 13.49251 144.80892 307 ft 10 kts 62°
2026-04-21 07:06 13.49277 144.80926 309 ft 5 kts 17°
2026-04-21 07:07 13.49311 144.80917 310 ft 5 kts 337°
2026-04-21 07:07 13.49349 144.80897 307 ft 3 kts 333°
2026-04-21 07:07 13.49354 144.80894 309 ft 0 kts 333°